Location: Mount Cross
(36.6390°N, 79.4878°W)
Time: 19:51:19
(UTC+00:00)

Courier 1B Rocket - Pass Details

Date: 30 March 2023
Orbit: 920 x 1202 km, 28.2° (Epoch: 05 June)

Event Time Altitude Azimuth Distance (km) Brightness Sun altitude
Rises 00:43:19 0° 250° (WSW) 3,962 9.1 -13.8°
Reaches altitude 10° 00:46:20 10° 243° (WSW) 2,962 8.2 -14.4°
Maximum altitude 00:53:02 41° 176° (S) 1,475 5.8 -15.7°
Enters shadow 00:56:43 23° 121° (ESE) 2,008 6.1 -16.4°
Drops below altitude 10° 00:59:18 10° 108° (ESE) 2,767 - -16.9°
Sets 01:02:02 0° 101° (E) 3,677 - -17.4°
